Overview Statistics Trail Chart Weather Telemetry Raw packets
 

This is the latest recevied weather packets stored in our database for station/object G4KVI. If no packets are shown the sender has not sent any weather packets the latest 10 day(s).

<< 25 26 27 28 29 30 31 >>
Time Temp. Humidity Pressure Rain* Wind** Luminosity Snow
1788419103 18.33° C 87% 1019.7 hPa 0 mm - 140 W/m² -
1788418803 18.33° C 87% 1019.3 hPa 0 mm - 87 W/m² -
1788418503 18.33° C 87% 1019.4 hPa 0 mm - 73 W/m² -
1788418204 18.33° C 88% 1019.6 hPa 0 mm - 63 W/m² -
1788417903 18.33° C 88% 1019.5 hPa 0 mm - 64 W/m² -
1788417603 18.33° C 88% 1019.5 hPa 0 mm - 58 W/m² -
1788417303 18.33° C 88% 1019.6 hPa 0 mm - 45 W/m² -
1788417004 18.33° C 88% 1019.4 hPa 0 mm - 37 W/m² -
1788416703 18.33° C 88% 1019.4 hPa 0 mm - 27 W/m² -
1788416403 18.33° C 88% 1019.3 hPa 0 mm - 26 W/m² -
1788416103 18.33° C 89% 1019.5 hPa 0 mm - 18 W/m² -
1788415803 18.33° C 89% 1019.4 hPa 0 mm - 17 W/m² -
1788415503 18.33° C 89% 1019.4 hPa 0 mm - 14 W/m² -
1788415203 18.33° C 89% 1019.5 hPa 0 mm - 13 W/m² -
1788414903 18.33° C 90% 1019.5 hPa 0 mm - 13 W/m² -
1788414603 18.33° C 90% 1019.3 hPa 0 mm - 8 W/m² -
1788414303 18.33° C 90% 1019.3 hPa 0 mm - 2 W/m² -
1788414003 18.33° C 90% 1019.4 hPa 0 mm - 2 W/m² -
1788413703 18.33° C 90% 1019.3 hPa 0 mm - 2 W/m² -
1788413403 18.33° C 91% 1019.4 hPa 0 mm - 1 W/m² -
1788413103 18.33° C 91% 1019.4 hPa 0 mm - 1 W/m² -
1788412803 18.33° C 91% 1019.5 hPa 0 mm - 0 W/m² -
1788412503 18.33° C 91% 1019.5 hPa 0 mm - 0 W/m² -
1788412203 18.33° C 91% 1019.2 hPa 0 mm - 0 W/m² -
1788411903 18.33° C 91% 1019.2 hPa 0 mm - 0 W/m² -

* Rain latest hour (hover to see other rain measurements)
** Current wind speed in m/s (hover to see current wind gust speed)